Audubon County Airport
Tuesday 8:55 PM
Temperature61° (84°/54°)
Dew Point39°
Relative Humidity45
%
Visibility10
mi
Pressure1006.8
mb
Wind Direction
Wind SpeedCalm
Precipitation Today0.00"

Last 30 Observations

Time PresWx Temp DP Feels RH% Vsby Pressure Ceiling Direction Speed 1h Precip
8:35 PM 64° 43° 45
%
10
mi
1006.4
mb
Calm 0.00"
8:15 PM 68° 43° 40
%
10
mi
1006.4
mb
NW
310°
3
mph
0.00"
7:55 PM 70° 43° 38
%
10
mi
1006.1
mb
NW
310°
3
mph
0.00"
7:35 PM 73° 41° 31
%
10
mi
1006.1
mb
WNW
300°
5
mph
0.00"
7:15 PM 75° 39° 27
%
10
mi
1005.8
mb
NW
310°
5
mph
0.00"
6:55 PM 77° 39° 26
%
10
mi
1005.4
mb
NW
320°
7
mph
0.00"
6:35 PM 79° 39° 24
%
10
mi
1005.1
mb
NW
320°
9
mph
0.00"
6:15 PM 81° 37° 21
%
10
mi
1005.1
mb
WNW
300°
9
mph
0.00"
5:55 PM 81° 39° 23
%
10
mi
1004.8
mb
NW
320°
7
mph
(G10)
0.00"
5:35 PM 82° 10
mi
1004.4
mb
WNW
300°
8
mph
0.00"
5:15 PM 82° 10
mi
1004.4
mb
WNW
300°
10
mph
(G22)
0.00"
4:55 PM 84° 10
mi
1004.4
mb
W
280°
11
mph
(G18)
0.00"
4:35 PM 84° 10
mi
1004.4
mb
WNW
290°
11
mph
0.00"
4:15 PM 84° 30° 14
%
10
mi
1004.4
mb
W
260°
7
mph
(G17)
0.00"
3:55 PM 84° 36° 18
%
10
mi
1004.4
mb
WNW
300°
11
mph
(G16)
0.00"
3:35 PM 84° 10
mi
1004.8
mb
W
280°
9
mph
(G25)
0.00"
3:15 PM 84° 10
mi
1004.8
mb
NW
310°
10
mph
(G17)
0.00"
2:55 PM 84° 10
mi
1004.8
mb
NW
310°
14
mph
0.00"
2:35 PM 84° 46° 27
%
10
mi
1005.1
mb
WNW
290°
9
mph
0.00"
2:15 PM 82° 52° 35
%
10
mi
1005.4
mb
WNW
290°
10
mph
0.00"
1:55 PM 81° 57° 45
%
10
mi
1005.4
mb
WSW
250°
7
mph
0.00"
1:35 PM 79° 61° 54
%
10
mi
1005.4
mb
SW
220°
8
mph
0.00"
1:15 PM 77° 61° 57
%
10
mi
1005.8
mb
SW
220°
10
mph
0.00"
12:55 PM 75° 63° 65
%
10
mi
1006.1
mb
WSW
240°
5
mph
0.00"
12:35 PM 73° 64° 73
%
10
mi
1006.1
mb
SW
230°
5
mph
0.00"
12:15 PM 70° 63° 78
%
10
mi
1006.4
mb
WSW
240°
9
mph
0.00"
11:55 AM 66° 63° 88
%
10
mi
1006.8
mb
SW
230°
7
mph
0.00"
11:35 AM 64° 63° 94
%
10
mi
1006.8
mb
SW
230°
10
mph
0.00"
11:15 AM 64° 61° 88
%
10
mi
1007.1
mb
WSW
250°
9
mph
0.00"
10:55 AM 63° 61° 94
%
7
mi
1006.8
mb
600
ft
WSW
240°
11
mph
0.00"